Location: Temple Hill
(37.3073°N, 88.6303°W)
Time: 17:41:45
(UTC+00:00)

Okean O Rocket - Pass Details

Date: 23 November 2020
Orbit: 623 x 644 km, 98.2° (Epoch: 19 January)

Event Time Altitude Azimuth Distance (km) Brightness Sun altitude
Rises 23:07:53 0° 155° (SSE) 2,888 5.0 -6.0°
Reaches altitude 10° 23:10:05 10° 151° (SSE) 1,987 4.1 -6.5°
Maximum altitude 23:14:18 54° 74° (ENE) 761 1.7 -7.2°
Drops below altitude 10° 23:18:33 10° 357° (N) 2,009 4.0 -8.0°
Sets 23:20:47 0° 353° (N) 2,924 4.9 -8.4°
